When you browse on this site, cookies collect data to enhance your experience and personalize the content and advertising you see.
Visit our Privacy Policy to learn more. By continuing to use the site, you agree to this use of cookies and data.
  • Em Portugal
  • Lista de países
  • Para 7 dias
  • Temperatura da água
  • Mapa do tempo
  • Widgets de tempo
  • user-avatar
    Iniciar Sessão

    Previsão horária em Ali Bayramli

    Hoje, 23 Setembro, Segunda-feira

    Tempo Temperatura Precipitação Vento Pressão Humidade
    00:00 +16°C° 0 mm 1 m/s 763 mmHg 79%
    01:00 +16°C° 0 mm 1 m/s 763 mmHg 81%
    02:00 +15°C° 0 mm 1 m/s 762 mmHg 82%
    03:00 +15°C° 0 mm 1 m/s 762 mmHg 84%
    04:00 +16°C° 0 mm 1 m/s 762 mmHg 82%
    05:00 +16°C° 0 mm 1 m/s 762 mmHg 80%
    06:00 +18°C° 0 mm 1 m/s 762 mmHg 78%
    07:00 +19°C° 0 mm 1 m/s 762 mmHg 74%
    08:00 +19°C° 0 mm 1 m/s 762 mmHg 71%
    09:00 +20°C° 0 mm 1 m/s 762 mmHg 67%
    10:00 +21°C° 0.1 mm 1 m/s 761 mmHg 66%
    11:00 +21°C° 0.1 mm 1 m/s 761 mmHg 64%
    12:00 +21°C° 0.1 mm 1 m/s 760 mmHg 62%
    13:00 +21°C° 0 mm 2 m/s 760 mmHg 61%
    14:00 +23°C° 0 mm 2 m/s 759 mmHg 60%
    15:00 +24°C° 0 mm 3 m/s 759 mmHg 59%
    16:00 +22°C° 0 mm 3 m/s 759 mmHg 64%
    17:00 +22°C° 0 mm 3 m/s 759 mmHg 69%
    18:00 +21°C° 0 mm 3 m/s 759 mmHg 74%
    19:00 +20°C° 0 mm 3 m/s 760 mmHg 76%
    20:00 +20°C° 0 mm 4 m/s 760 mmHg 77%
    21:00 +20°C° 0 mm 4 m/s 761 mmHg 78%
    22:00 +20°C° 0 mm 5 m/s 761 mmHg 74%
    23:00 +20°C° 0 mm 5 m/s 761 mmHg 70%

    Amanhã, 24 Setembro, Terça-feira

    Tempo Temperatura Precipitação Vento Pressão Humidade
    00:00 +20°C° 0 mm 6 m/s 760 mmHg 66%
    01:00 +19°C° 0 mm 5 m/s 760 mmHg 66%
    02:00 +19°C° 0 mm 4 m/s 760 mmHg 66%
    03:00 +19°C° 0 mm 4 m/s 760 mmHg 66%
    04:00 +19°C° 0 mm 3 m/s 760 mmHg 66%
    05:00 +19°C° 0 mm 3 m/s 761 mmHg 65%
    06:00 +19°C° 0 mm 3 m/s 761 mmHg 65%
    07:00 +20°C° 0 mm 3 m/s 761 mmHg 63%
    08:00 +21°C° 0 mm 3 m/s 761 mmHg 61%
    09:00 +21°C° 0 mm 3 m/s 761 mmHg 59%
    10:00 +22°C° 0 mm 3 m/s 761 mmHg 58%
    11:00 +23°C° 0 mm 2 m/s 760 mmHg 58%
    12:00 +24°C° 0 mm 2 m/s 760 mmHg 57%
    13:00 +25°C° 0 mm 3 m/s 759 mmHg 56%
    14:00 +25°C° 0 mm 3 m/s 759 mmHg 56%
    15:00 +26°C° 0 mm 3 m/s 759 mmHg 55%
    16:00 +25°C° 0 mm 3 m/s 759 mmHg 59%
    17:00 +24°C° 0 mm 3 m/s 758 mmHg 64%
    18:00 +22°C° 0 mm 3 m/s 758 mmHg 68%
    19:00 +21°C° 0 mm 3 m/s 759 mmHg 72%
    20:00 +21°C° 0 mm 2 m/s 759 mmHg 76%
    21:00 +20°C° 0 mm 2 m/s 759 mmHg 79%
    22:00 +20°C° 0 mm 2 m/s 759 mmHg 82%
    23:00 +20°C° 0 mm 1 m/s 758 mmHg 84%

    Depois de amanhã, 25 Setembro, Quarta-feira

    Tempo Temperatura Precipitação Vento Pressão Humidade
    00:00 +20°C° 0 mm 1 m/s 758 mmHg 86%
    01:00 +19°C° 0 mm 1 m/s 758 mmHg 88%
    02:00 +19°C° 0 mm 1 m/s 758 mmHg 89%
    03:00 +17°C° 0 mm 0 m/s 758 mmHg 90%
    04:00 +17°C° 0 mm 0 m/s 758 mmHg 90%
    05:00 +16°C° 0 mm 0 m/s 758 mmHg 91%
    06:00 +16°C° 0 mm 0 m/s 757 mmHg 91%
    07:00 +20°C° 0 mm 1 m/s 758 mmHg 82%
    08:00 +22°C° 0 mm 1 m/s 758 mmHg 73%
    09:00 +24°C° 0 mm 2 m/s 758 mmHg 63%
    10:00 +26°C° 0 mm 1 m/s 758 mmHg 58%
    11:00 +27°C° 0 mm 1 m/s 758 mmHg 53%
    12:00 +28°C° 0 mm 1 m/s 758 mmHg 48%
    13:00 +28°C° 0 mm 3 m/s 758 mmHg 48%
    14:00 +28°C° 0 mm 4 m/s 757 mmHg 48%
    15:00 +29°C° 0 mm 6 m/s 757 mmHg 48%
    16:00 +27°C° 0 mm 6 m/s 757 mmHg 53%
    17:00 +24°C° 0 mm 7 m/s 758 mmHg 59%
    18:00 +22°C° 0 mm 7 m/s 758 mmHg 64%
    19:00 +22°C° 0 mm 7 m/s 758 mmHg 65%
    20:00 +21°C° 0 mm 6 m/s 759 mmHg 66%
    21:00 +21°C° 0 mm 6 m/s 759 mmHg 68%
    22:00 +20°C° 0 mm 6 m/s 759 mmHg 68%
    23:00 +20°C° 0 mm 5 m/s 759 mmHg 68%

    26 Setembro, Quinta-feira

    Tempo Temperatura Precipitação Vento Pressão Humidade
    00:00 +20°C° 0 mm 5 m/s 759 mmHg 69%
    01:00 +19°C° 0 mm 4 m/s 759 mmHg 70%
    02:00 +19°C° 0 mm 4 m/s 759 mmHg 72%
    03:00 +19°C° 0 mm 4 m/s 759 mmHg 73%
    04:00 +19°C° 0 mm 3 m/s 759 mmHg 74%
    05:00 +18°C° 0 mm 2 m/s 759 mmHg 75%
    06:00 +18°C° 0 mm 2 m/s 759 mmHg 76%
    07:00 +20°C° 0 mm 2 m/s 759 mmHg 69%
    08:00 +22°C° 0 mm 1 m/s 759 mmHg 62%
    09:00 +24°C° 0 mm 1 m/s 759 mmHg 55%
    10:00 +25°C° 0 mm 1 m/s 759 mmHg 50%
    11:00 +26°C° 0 mm 1 m/s 759 mmHg 46%
    12:00 +28°C° 0 mm 1 m/s 758 mmHg 41%
    13:00 +28°C° 0 mm 1 m/s 758 mmHg 41%
    14:00 +29°C° 0 mm 2 m/s 757 mmHg 41%
    15:00 +29°C° 0 mm 2 m/s 757 mmHg 41%
    16:00 +28°C° 0 mm 3 m/s 757 mmHg 49%
    17:00 +26°C° 0 mm 4 m/s 757 mmHg 58%
    18:00 +23°C° 0 mm 5 m/s 757 mmHg 67%
    19:00 +23°C° 0 mm 6 m/s 758 mmHg 65%
    20:00 +22°C° 0 mm 6 m/s 758 mmHg 63%
    21:00 +21°C° 0 mm 7 m/s 759 mmHg 62%
    22:00 +21°C° 0 mm 6 m/s 759 mmHg 59%
    23:00 +21°C° 0 mm 5 m/s 759 mmHg 56%

    27 Setembro, Sexta-feira

    Tempo Temperatura Precipitação Vento Pressão Humidade
    00:00 +21°C° 0 mm 5 m/s 759 mmHg 54%
    01:00 +20°C° 0 mm 4 m/s 759 mmHg 54%
    02:00 +20°C° 0 mm 3 m/s 759 mmHg 54%
    03:00 +20°C° 0 mm 3 m/s 759 mmHg 55%
    04:00 +19°C° 0 mm 3 m/s 760 mmHg 56%
    05:00 +19°C° 0 mm 3 m/s 760 mmHg 58%
    06:00 +19°C° 0 mm 3 m/s 760 mmHg 60%
    07:00 +20°C° 0 mm 3 m/s 760 mmHg 54%
    08:00 +22°C° 0 mm 4 m/s 760 mmHg 47%
    09:00 +25°C° 0 mm 4 m/s 760 mmHg 41%
    10:00 +26°C° 0 mm 4 m/s 760 mmHg 38%
    11:00 +27°C° 0 mm 4 m/s 760 mmHg 36%
    12:00 +28°C° 0 mm 4 m/s 760 mmHg 34%
    13:00 +28°C° 0 mm 5 m/s 759 mmHg 34%
    14:00 +28°C° 0 mm 5 m/s 759 mmHg 35%
    15:00 +28°C° 0 mm 6 m/s 758 mmHg 35%
    16:00 +26°C° 0 mm 5 m/s 758 mmHg 39%
    17:00 +25°C° 0 mm 5 m/s 759 mmHg 44%
    18:00 +22°C° 0 mm 5 m/s 759 mmHg 48%
    19:00 +22°C° 0 mm 5 m/s 759 mmHg 49%
    20:00 +21°C° 0 mm 4 m/s 759 mmHg 51%
    21:00 +20°C° 0 mm 4 m/s 760 mmHg 52%
    22:00 +20°C° 0 mm 3 m/s 759 mmHg 52%
    23:00 +20°C° 0 mm 3 m/s 759 mmHg 52%

    28 Setembro, Sábado

    Tempo Temperatura Precipitação Vento Pressão Humidade
    00:00 +19°C° 0 mm 2 m/s 759 mmHg 52%
    01:00 +19°C° 0 mm 2 m/s 758 mmHg 51%
    02:00 +19°C° 0 mm 1 m/s 758 mmHg 51%
    03:00 +19°C° 0 mm 1 m/s 758 mmHg 51%
    04:00 +18°C° 0 mm 1 m/s 757 mmHg 52%
    05:00 +18°C° 0 mm 1 m/s 757 mmHg 53%
    06:00 +18°C° 0 mm 1 m/s 757 mmHg 54%
    07:00 +20°C° 0 mm 1 m/s 757 mmHg 48%
    08:00 +22°C° 0 mm 1 m/s 757 mmHg 41%
    09:00 +24°C° 0 mm 1 m/s 757 mmHg 34%
    10:00 +26°C° 0 mm 1 m/s 757 mmHg 32%
    11:00 +27°C° 0 mm 1 m/s 756 mmHg 29%
    12:00 +29°C° 0 mm 1 m/s 756 mmHg 26%
    13:00 +29°C° 0 mm 1 m/s 756 mmHg 27%
    14:00 +29°C° 0 mm 2 m/s 755 mmHg 28%
    15:00 +29°C° 0 mm 2 m/s 755 mmHg 29%
    16:00 +28°C° 0 mm 3 m/s 756 mmHg 37%
    17:00 +26°C° 0 mm 5 m/s 756 mmHg 44%
    18:00 +23°C° 0 mm 6 m/s 757 mmHg 52%
    19:00 +22°C° 0 mm 6 m/s 758 mmHg 54%
    20:00 +22°C° 0 mm 6 m/s 758 mmHg 55%
    21:00 +21°C° 0 mm 6 m/s 759 mmHg 57%
    22:00 +21°C° 0 mm 7 m/s 759 mmHg 57%
    23:00 +20°C° 0 mm 8 m/s 760 mmHg 57%
    Mostrar mais